TIME,DELAY(SENSOR),PRES,OXYGEN,RAWTEMP,T(OPTODE),TCPHASE,FLUOR,BETA(BETA700),BETA(BETA412),BETA(BETA440),CDOM,C(CSC),ED(ED412.40),ED(ED444.00),ED(ED489.70),ED(ED554.30),LU(LU411.80),LU(LU443.40),LU(LU489.60),LU(LU554.10),COMP,TILTX,TILTY,CHECK
1336361222,5807,902.2800292968750000,42.8156509399414060,660.9317016601562000,4.5972962379455570,54.5894203186035160,53,102,88,79,83,15298,2147755190,2147419300,2148006829,2147875172,2147643053,2147060900,2148257993,2147202450,1497,4,14,39558
1336364818,5808,963.3699951171875000,46.5649909973144500,670.9260864257812000,4.2675971984863280,54.1614303588867200,54,102,89,80,83,15296,2147754669,2147421705,2148003730,2147874139,2147643849,2147059309,2148265673,2147199716,3526,4,13,52242
1336368418,5810,974.1599731445312000,47.8386497497558600,673.3156127929688000,4.1886081695556640,54.0139503479003900,52,99,90,79,84,15295,2147758153,2147421842,2148008740,2147871268,2147642907,2147059364,2148262144,2147204251,3299,4,13,17538
1336372018,5808,983.6199951171875000,48.1438903808593750,673.7772827148438000,4.1733379364013670,53.9770202636718750,52,99,88,79,82,15299,2147761197,2147421668,2148006710,2147874825,2147645129,2147064237,2148262244,2147200722,3373,4,13,14238
1336375618,5809,986.6500244140625000,47.2187194824218750,673.1494750976562000,4.1940989494323730,54.0982398986816400,53,101,89,79,82,15297,2147760429,2147421001,2148006875,2147873197,2147644333,2147059986,2148259922,2147200758,139,4,13,52972
1336379218,5809,983.7700195312500000,47.2059593200683600,673.5360107421875000,4.1813178062438965,54.1057510375976560,53,99,89,79,84,15298,2147762660,2147418441,2148007789,2147873910,2147640978,2147059977,2148266002,2147200841,3246,4,13,63642
1336382818,5809,998.0599975585938000,47.2110786437988300,673.7484741210938000,4.1742920875549320,54.1078414916992200,52,98,90,80,84,15296,2147757787,2147420187,2148004260,2147876443,2147641444,2147059172,2148266486,2147200941,192,4,13,1065
1336386418,5808,1007.1199951171875000,46.7342796325683600,672.6718750000000000,4.2098960876464840,54.1613693237304700,52,100,89,79,83,15293,2147761700,2147421385,2148006884,2147875437,2147647954,2147062564,2148261001,2147196964,307,4,13,18795
1336390018,5808,1010.2800292968750000,45.6596908569335940,670.5822753906250000,4.2789587974548340,54.2876815795898440,53,100,89,81,82,15295,2147757449,2147419510,2148006500,2147878537,2147641142,2147061906,2148264749,2147200630,388,4,13,49367
1336393618,5812,992.6099853515625000,46.0079803466796900,672.0819702148438000,4.2293949127197270,54.2570610046386700,53,99,91,79,83,15291,2147759177,2147417197,2148004672,2147871634,2147645833,2147061421,2148262372,2147202258,4,4,13,30266
1336397218,5805,1007.7299804687500000,46.9756889343261700,674.0571899414062000,4.1640801429748535,54.1433296203613300,52,99,86,79,83,15293,2147759606,2147419776,2148007030,2147874834,2147643794,2147066432,2148265993,2147194148,61,4,13,43037
1336400818,5812,1007.4500122070312000,46.5832290649414060,672.8228759765625000,4.2048988342285160,54.1870918273925800,53,100,88,80,83,15292,2147760429,2147420781,2148005504,2147873792,2147644242,2147063552,2148260745,2147203099,82,4,13,11043
1336404418,5810,1008.1799926757812000,46.4887809753418000,672.8001098632812000,4.2056541442871090,54.1955108642578100,52,99,87,79,83,15286,2147756964,2147419154,2148006436,2147875465,2147643693,2147061065,2148264347,2147198354,92,4,13,54852
1336408018,5809,1000.0700073242188000,46.6834297180175800,674.1660766601562000,4.1604747772216800,54.1842918395996100,53,105,88,80,84,15289,2147758198,2147421549,2148007067,2147872530,2147646811,2147060854,2148265636,2147198976,262,4,13,39770
1336411618,5810,994.2399902343750000,46.9177703857421900,675.0189208984375000,4.1322588920593260,54.1621589660644500,53,100,88,80,84,15286,2147757970,2147418340,2148006720,2147876635,2147645065,2147065206,2148266505,2147203666,320,4,13,34671
1336415218,5808,1008.7999877929688000,47.0799598693847660,674.8076782226562000,4.1392478942871090,54.1391906738281250,52,98,87,78,84,15284,2147758445,2147420772,2148005632,2147877046,2147644224,2147061211,2148259648,2147203190,3274,4,13,63532
1336418818,5808,1012.3699951171875000,46.2014884948730500,671.9849243164062000,4.2326068878173830,54.2291984558105500,53,100,86,80,84,15286,2147759798,2147418313,2148005513,2147872338,2147646080,2147062491,2148261860,2147202075,323,4,13,20729
1336422418,5807,1011.8599853515625000,46.8293190002441400,673.4464721679688000,4.1842780113220215,54.1573295593261700,52,103,89,79,85,15284,2147756891,2147419693,2148004278,2147873389,2147647643,2147058688,2148267520,2147200932,3374,4,13,7913
1336426018,5812,1005.2800292968750000,46.1849594116210940,673.8128051757812000,4.1721649169921875,54.2517890930175800,52,99,89,80,84,15284,2147759972,2147419593,2148004178,2147874102,2147645622,2147060918,2148265773,2147198336,41,5,13,22142
1336429618,5808,1010.7999877929688000,46.0983581542968750,672.3270874023438000,4.2212920188903810,54.2482910156250000,52,99,87,79,83,15282,2147757778,2147417554,2148005257,2147873673,2147644205,2147060032,2148264969,2147197888,651,4,13,7867
1336433218,5808,1006.8800048828125000,46.2436599731445300,673.0203857421875000,4.1983718872070310,54.2326507568359400,52,100,85,79,83,15281,2147758619,2147419949,2148001828,2147874230,2147644662,2147060123,2148265298,2147200987,833,4,13,59713
1336436818,5809,1004.7399902343750000,46.2534408569335940,672.8850708007812000,4.2028450965881350,54.2341117858886700,53,101,91,80,84,15279,2147755291,2147419510,2148009280,2147874276,2147646582,2147061668,2148263990,2147196790,446,4,13,16718
1336440418,5803,1009.9500122070312000,46.1119499206543000,674.2318115234375000,4.1583042144775390,54.2678489685058600,52,100,87,80,82,15281,2147757568,2147420233,2148006875,2147874779,2147644214,2147063707,2148264420,2147200036,466,4,13,10643
1336444018,5807,1004.3699951171875000,46.4996185302734400,673.7326049804688000,4.1748161315917970,54.2092399597168000,52,100,90,79,83,15280,2147757229,2147421714,2148006912,2147871195,2147645787,2147063853,2148265170,2147197522,470,4,13,44171
1336447618,5802,1007.6900024414062000,46.2142410278320300,674.4863281250000000,4.1498851776123050,54.2550201416015600,52,99,90,79,83,15277,2147756928,2147421165,2148004928,2147876141,2147648795,2147062244,2148267876,2147201005,3256,4,13,11861
1336451218,5808,1010.8800048828125000,47.0201988220214840,674.6724243164062000,4.1437258720397950,54.1411094665527340,53,106,89,79,83,15276,2147760512,2147418450,2148006436,2147873984,2147645540,2147062144,2148259218,2147204278,3215,4,13,54319
1336454818,5809,1007.4400024414062000,46.6725807189941400,675.5891113281250000,4.1133899688720700,54.2074394226074200,52,100,83,79,84,15275,2147760832,2147419273,2148006345,2147876681,2147647369,2147058880,2148263360,2147201261,164,4,13,21646
1336458418,5810,1002.3800048828125000,47.0803184509277340,675.5726928710938000,4.1139340400695800,54.1485099792480500,52,101,88,77,84,15275,2147759277,2147418596,2148006710,2147872932,2147646427,2147061385,2148264731,2147201042,361,4,13,65066
1336462018,5811,1001.9600219726562000,47.0367507934570300,675.6926269531250000,4.1099658012390140,54.1572990417480500,53,98,89,80,84,15271,2147759634,2147420150,2148010541,2147873106,2147646939,2147061001,2148266944,2147203904,519,4,13,5309
1336465618,5810,1007.8400268554688000,47.0670394897460940,675.6915283203125000,4.1100010871887210,54.1476097106933600,53,101,91,79,84,15270,2147760091,2147420086,2148007268,2147874779,2147647387,2147058112,2148266441,2147198646,241,4,13,20567
1336469218,5809,1017.8200073242188000,47.3207893371582000,675.7219848632812000,4.1089940071105960,54.1160011291503900,53,100,86,80,84,15266,2147758061,2147418477,2148007725,2147873563,2147652196,2147054244,2148268516,2147198436,267,4,13,14080
1336472818,5806,1013.8300170898438000,46.2810096740722660,674.2257080078125000,4.1585040092468260,54.2448997497558600,52,99,93,79,83,15270,2147757248,2147421147,2148005878,2147875026,2147645705,2147056621,2148261869,2147201691,3477,4,13,27023
1336476418,5807,1017.8599853515625000,46.4841690063476560,675.2509765625000000,4.1245799064636230,54.2252197265625000,52,100,90,82,84,15267,2147759158,2147419090,2148008886,2147874870,2147644123,2147064594,2148261888,2147201883,752,4,13,1034
1336480018,5809,1022.0999755859375000,46.4777793884277340,672.1110839843750000,4.2284359931945800,54.1902809143066400,53,100,87,78,82,15262,2147757129,2147421348,2148008054,2147872429,2147645184,2147062006,2148262729,2147203062,294,4,13,14066
1336483618,5808,1023.4500122070312000,45.8974914550781250,671.8009033203125000,4.2386889457702640,54.2708702087402340,53,97,86,79,84,15267,2147759085,2147422107,2148008822,2147871872,2147646646,2147063862,2148264283,2147200685,347,4,13,58492
1336487218,5809,1017.1699829101562000,45.8326988220214840,672.8837890625000000,4.2028880119323730,54.2939682006835940,53,98,87,79,83,15261,2147758418,2147419318,2148007058,2147870125,2147646381,2147060571,2148265270,2147198390,394,4,13,43861
1336490818,5803,1005.0599975585938000,46.1192893981933600,674.1848754882812000,4.1598548889160160,54.2640113830566400,52,100,90,78,83,15266,2147753755,2147418304,2148007268,2147873179,2147644946,2147060077,2148261421,2147198656,3053,4,13,41151
1336494418,5806,1012.4400024414062000,46.4182090759277340,674.7451782226562000,4.1413168907165530,54.2279815673828100,53,99,88,79,84,15264,2147759945,2147419693,2148004214,2147874605,2147645257,2147063360,2148261138,2147204233,227,4,13,24613
1336498018,5807,1007.4299926757812000,46.5096817016601560,675.2352905273438000,4.1251010894775390,54.2199401855468750,52,103,87,79,83,15264,2147758144,2147419309,2148007213,2147871945,2147647972,2147059291,2148265965,2147198692,3493,4,13,52095
1336501618,5811,1011.8300170898438000,46.9343681335449200,675.3704223632812000,4.1206278800964355,54.1625213623046900,53,101,93,79,83,15265,2147760374,2147418998,2148007085,2147874130,2147645211,2147068544,2148267053,2147200722,50,5,13,41513
1336505218,5811,1013.0900268554688000,47.0960617065429700,675.6964721679688000,4.1098351478576660,54.1437797546386700,53,101,88,79,83,15264,2147757348,2147422683,2148007634,2147873636,2147644571,2147058084,2148264173,2147200228,3548,4,13,51484
1336506056,5809,1013.3900146484375000,47.2892608642578100,675.4993286132812000,4.1163620948791500,54.1175804138183600,52,100,87,79,85,15290,2147757120,2147417362,2148008960,2147873545,2147645522,2147060086,2148265965,2147202797,176,4,13,21380
